• Processing (Info)

  • MPEC 2006-L11 : 2006 LF

    The following Minor Planet Electronic Circular may be linked-to from your own Web pages, but must not otherwise be redistributed electronically.

    A form allowing access to any MPEC is at the bottom of this page.


    Read MPEC 2006-L10 Read MPEC 2006-L12


    M.P.E.C. 2006-L11                                Issued 2006 June 2, 12:03 UT
    
         The Minor Planet Electronic Circulars contain information on unusual
             minor planets and routine data on comets.  They are published
       on behalf of Commission 20 of the International Astronomical Union by the
              Minor Planet Center, Smithsonian Astrophysical Observatory,
                              Cambridge, MA 02138, U.S.A.
    
                      Supported in part by the Brinson Foundation
                      Supported in part by the TABASGO Foundation
                 Prepared using the Tamkin Foundation Computer Network
    
                                  MPC@CFA.HARVARD.EDU
              URL http://cfa-www.harvard.edu/iau/mpc.html  ISSN 1523-6714
    
                                        2006 LF
    
    Observations:
         K06L00F* C2006 06 01.40392 22 01 22.15 +13 56 54.0          19.4   EL011704
         K06L00F  C2006 06 01.41449 22 01 20.24 +13 56 49.4          19.3   EL011704
         K06L00F  C2006 06 01.42500 22 01 18.25 +13 56 46.0          19.3   EL011704
         K06L00F  C2006 06 02.34540 21 58 37.02 +13 48 45.3          18.8 R EL011734
         K06L00F  C2006 06 02.34850 21 58 36.45 +13 48 43.6          18.9 R EL011734
         K06L00F  C2006 06 02.35162 21 58 35.90 +13 48 42.2          19.2 R EL011734
         K06L00F  C2006 06 02.41360 21 58 24.99 +13 48 12.8          19.0 V EL011G96
         K06L00F  C2006 06 02.41413 21 58 24.92 +13 48 12.6          19.0 V EL011G96
         K06L00F  C2006 06 02.41466 21 58 24.81 +13 48 12.2          18.9 V EL011G96
         K06L00F  C2006 06 02.41520 21 58 24.70 +13 48 12.1          19.0 V EL011G96
    
    Observer details:
    704 Lincoln Laboratory ETS, New Mexico.  Observers M. Bezpalko, L. Manguso,
        D. Torres, R. Kracke, M. Blythe, H. Love, G. Spitz.  Measurers J. Stuart,
        J. Kommers.  1.0-m f/2.15 reflector + CCD.
    734 Farpoint Observatory.  Observer D. Tibbets.  Measurer G. Hug.  0.7-m
        reflector + CCD.
    G96 Mt. Lemmon Survey.  Observer R. Hill.  Measurers E. C. Beshore,
        E. J. Christensen, G. J. Garradd, A. R. Gibbs, A. D. Grauer, R. E. Hill,
        R. A. Kowalski, S. M. Larson, R. H. McNaught.  1.5-m reflector + CCD.
    
    Orbital elements:
    2006 LF                                                  Earth MOID = 0.1151 AU
    Epoch 2006 May 25.0 TT = JDT 2453880.5                  MPC
    M  19.85439              (2000.0)            P               Q
    n   0.41722158     Peri.  348.10382     -0.99676972     +0.07196949
    a   1.7737464      Node   196.15220     -0.05908041     -0.95771642
    e   0.5872533      Incl.    7.36150     -0.05440245     -0.27856712
    P   2.36           H   19.0           G   0.15
    From 10 observations 2006 June 1-2.  E-assumed.
    
    Ephemeris:
    2006 LF                  a,e,i = 1.77, 0.59, 7                   q = 0.7321
    Date    TT    R. A. (2000) Decl.     Delta      r     Elong.  Phase     V
    2006 05 25    22 24.14   +14 56.7    0.293    1.008    80.7    82.7    19.2
    2006 06 04    21 53.80   +13 34.3    0.322    1.100    96.8    66.3    19.1
    2006 06 14    21 25.15   +11 47.6    0.350    1.193   112.3    51.9    19.0
    2006 06 24    20 56.18   +09 20.8    0.382    1.286   127.8    38.6    19.0
    2006 07 04    20 27.86   +06 12.5    0.424    1.378   142.5    26.7    19.0
    2006 07 14    20 02.75   +02 41.2    0.483    1.467   154.5    17.4    19.2
    2006 07 24    19 42.88   -00 48.4    0.560    1.553   159.5    13.2    19.5
    2006 08 03    19 29.15   -03 57.5    0.657    1.636   155.6    14.8    20.0
    2006 08 13    19 21.36   -06 37.3    0.773    1.716   147.5    18.5    20.6
    2006 08 23    19 18.64   -08 46.9    0.905    1.793   138.5    21.9    21.1
    2006 09 02    19 20.07   -10 29.0    1.052    1.866   129.8    24.6    21.6
    2006 09 12    19 24.79   -11 46.8    1.210    1.936   121.5    26.3    22.0
    
    Timothy B. Spahr             (C) Copyright 2006 MPC           M.P.E.C. 2006-L11
    

    Read MPEC 2006-L10 Read MPEC 2006-L12


    MPEC number:

    Enter an MPEC number in one of the following forms:

    • 1997-B01 (the full form)
    • J97B01 (the packed version of the full form)
    • B01 (the abbreviated form)